Time,TemperatureF,DewpointF,PressureIn,WindDirection,WindDirectionDegrees,WindSpeedMPH,WindSpeedGustMPH,Humidity,HourlyPrecipIn,Conditions,Clouds,dailyrainin,SoftwareType,DateUTC
2013-08-07 00:01:00,52.0,51.0,30.01,NW,316,8.0,11.0,95,0.00,,,0.00,,2013-08-07 07:01:00,
2013-08-07 00:12:00,52.0,51.0,30.01,NW,323,0.0,12.0,96,0.00,,,0.00,,2013-08-07 07:12:00,
2013-08-07 00:43:00,52.0,51.0,30.01,NW,320,4.0,7.0,96,0.00,,,0.00,,2013-08-07 07:43:00,
2013-08-07 00:52:00,51.0,50.0,30.02,North,0,0.0,7.0,96,0.00,,,0.00,,2013-08-07 07:52:00,
2013-08-07 01:01:00,51.0,50.0,30.02,North,0,0.0,0.0,96,0.00,,,0.00,,2013-08-07 08:01:00,
2013-08-07 01:11:00,51.0,50.0,30.02,North,0,0.0,0.0,96,0.00,,,0.00,,2013-08-07 08:11:00,
2013-08-07 01:21:00,51.0,50.0,30.03,WNW,294,0.0,7.0,96,0.00,,,0.00,,2013-08-07 08:21:00,
2013-08-07 01:32:00,51.0,50.0,30.03,WNW,302,1.0,4.0,96,0.00,,,0.00,,2013-08-07 08:32:00,
2013-08-07 01:43:00,52.0,51.0,30.03,North,0,0.0,4.0,96,0.00,,,0.00,,2013-08-07 08:43:00,
2013-08-07 02:11:00,52.0,51.0,30.03,North,0,0.0,0.0,96,0.00,,,0.00,,2013-08-07 09:11:00,
2013-08-07 02:43:00,51.0,50.0,30.03,NW,319,3.0,7.0,96,0.00,,,0.00,,2013-08-07 09:43:00,
2013-08-07 02:54:00,51.0,50.0,30.03,NW,316,4.0,8.0,96,0.00,,,0.00,,2013-08-07 09:54:00,
2013-08-07 03:01:00,51.0,50.0,30.03,WNW,296,2.0,6.0,96,0.00,,,0.00,,2013-08-07 10:01:00,
2013-08-07 03:32:00,50.0,49.0,30.03,SE,141,0.0,4.0,96,0.00,,,0.00,,2013-08-07 10:32:00,
2013-08-07 03:43:00,50.0,49.0,30.03,North,0,0.0,4.0,96,0.00,,,0.00,,2013-08-07 10:43:00,
2013-08-07 03:52:00,50.0,49.0,30.03,North,0,0.0,0.0,97,0.00,,,0.00,,2013-08-07 10:52:00,
2013-08-07 04:01:00,50.0,49.0,30.03,North,0,0.0,0.0,97,0.00,,,0.00,,2013-08-07 11:01:00,
2013-08-07 04:11:00,50.0,49.0,30.03,North,0,0.0,0.0,97,0.00,,,0.00,,2013-08-07 11:11:00,
2013-08-07 04:22:00,51.0,50.0,30.03,North,0,0.0,0.0,97,0.00,,,0.00,,2013-08-07 11:22:00,
2013-08-07 04:32:00,51.0,50.0,30.03,North,0,0.0,0.0,97,0.00,,,0.00,,2013-08-07 11:32:00,
2013-08-07 04:42:00,50.0,49.0,30.04,NE,47,0.0,3.0,97,0.00,,,0.00,,2013-08-07 11:42:00,
2013-08-07 04:52:00,50.0,49.0,30.05,East,82,0.0,3.0,97,0.00,,,0.00,,2013-08-07 11:52:00,
2013-08-07 05:02:00,52.0,51.0,30.06,ENE,61,0.0,3.0,97,0.00,,,0.00,,2013-08-07 12:02:00,
2013-08-07 05:11:00,51.0,50.0,30.06,SW,215,0.0,4.0,97,0.00,,,0.00,,2013-08-07 12:11:00,
2013-08-07 05:22:00,52.0,51.0,30.07,SE,145,0.0,5.0,97,0.00,,,0.00,,2013-08-07 12:22:00,
2013-08-07 05:32:00,51.0,50.0,30.06,North,0,0.0,0.0,97,0.00,,,0.00,,2013-08-07 12:32:00,
2013-08-07 05:43:00,51.0,50.0,30.06,North,0,0.0,0.0,97,0.00,,,0.00,,2013-08-07 12:43:00,
2013-08-07 05:52:00,51.0,50.0,30.07,North,0,0.0,0.0,97,0.00,,,0.00,,2013-08-07 12:52:00,
2013-08-07 06:02:00,51.0,50.0,30.07,North,0,0.0,0.0,97,0.00,,,0.00,,2013-08-07 13:02:00,
2013-08-07 06:43:00,51.0,50.0,30.08,North,0,0.0,0.0,97,0.00,,,0.00,,2013-08-07 13:43:00,
2013-08-07 06:52:00,51.0,50.0,30.08,North,0,0.0,0.0,97,0.00,,,0.00,,2013-08-07 13:52:00,
2013-08-07 07:01:00,51.0,50.0,30.08,North,0,0.0,0.0,97,0.00,,,0.00,,2013-08-07 14:01:00,
2013-08-07 07:11:00,50.0,49.0,30.09,North,0,0.0,0.0,97,0.00,,,0.00,,2013-08-07 14:11:00,
2013-08-07 07:42:00,51.0,50.0,30.09,North,0,0.0,0.0,97,0.00,,,0.00,,2013-08-07 14:42:00,
2013-08-07 07:52:00,51.0,50.0,30.09,North,0,0.0,0.0,97,0.00,,,0.00,,2013-08-07 14:52:00,
2013-08-07 08:12:00,51.0,50.0,30.09,North,0,0.0,0.0,97,0.00,,,0.00,,2013-08-07 15:12:00,
2013-08-07 08:22:00,51.0,50.0,30.08,North,0,0.0,0.0,97,0.00,,,0.00,,2013-08-07 15:22:00,
2013-08-07 08:33:00,52.0,51.0,30.08,North,0,0.0,0.0,97,0.00,,,0.00,,2013-08-07 15:33:00,
2013-08-07 08:43:00,53.0,52.0,30.08,North,0,0.0,0.0,97,0.00,,,0.00,,2013-08-07 15:43:00,
2013-08-07 08:53:00,53.0,52.0,30.07,North,0,0.0,0.0,97,0.00,,,0.00,,2013-08-07 15:53:00,
2013-08-07 09:02:00,54.0,53.0,30.07,NW,309,0.0,4.0,97,0.00,,,0.00,,2013-08-07 16:02:00,
2013-08-07 09:11:00,53.0,52.0,30.06,North,0,0.0,4.0,96,0.00,,,0.00,,2013-08-07 16:11:00,
2013-08-07 09:32:00,53.0,52.0,30.07,North,0,0.0,0.0,96,0.00,,,0.00,,2013-08-07 16:32:00,
2013-08-07 09:43:00,54.0,53.0,30.07,North,0,0.0,0.0,96,0.00,,,0.00,,2013-08-07 16:43:00,
2013-08-07 09:52:00,54.0,53.0,30.07,North,0,0.0,0.0,96,0.00,,,0.00,,2013-08-07 16:52:00,
2013-08-07 10:01:00,55.0,54.0,30.06,West,270,5.0,6.0,96,0.00,,,0.00,,2013-08-07 17:01:00,
2013-08-07 10:22:00,56.0,54.0,30.06,NW,326,8.0,13.0,93,0.00,,,0.00,,2013-08-07 17:22:00,
2013-08-07 10:33:00,57.0,54.0,30.06,NW,319,6.0,12.0,91,0.00,,,0.00,,2013-08-07 17:33:00,
2013-08-07 10:42:00,57.0,54.0,30.06,NW,308,0.0,12.0,89,0.00,,,0.00,,2013-08-07 17:42:00,
2013-08-07 10:52:00,57.0,54.0,30.06,NW,315,5.0,10.0,89,0.00,,,0.00,,2013-08-07 17:52:00,
2013-08-07 11:02:00,58.0,54.0,30.06,NW,320,9.0,13.0,88,0.00,,,0.00,,2013-08-07 18:02:00,
2013-08-07 11:11:00,58.0,54.0,30.07,WNW,291,9.0,14.0,86,0.00,,,0.00,,2013-08-07 18:11:00,
2013-08-07 11:21:00,58.0,54.0,30.07,West,280,9.0,14.0,85,0.00,,,0.00,,2013-08-07 18:21:00,
2013-08-07 11:32:00,59.0,54.0,30.07,WNW,282,8.0,14.0,84,0.00,,,0.00,,2013-08-07 18:32:00,
2013-08-07 11:43:00,60.0,54.0,30.07,NW,317,6.0,16.0,82,0.00,,,0.00,,2013-08-07 18:43:00,
2013-08-07 11:52:00,60.0,54.0,30.07,NW,313,12.0,16.0,81,0.00,,,0.00,,2013-08-07 18:52:00,
2013-08-07 12:01:00,60.0,54.0,30.07,NNW,331,9.0,16.0,81,0.00,,,0.00,,2013-08-07 19:01:00,
2013-08-07 12:43:00,58.0,53.0,30.06,NW,316,10.0,18.0,83,0.00,,,0.00,,2013-08-07 19:43:00,
2013-08-07 12:52:00,57.0,52.0,30.07,NNW,334,9.0,14.0,84,0.00,,,0.00,,2013-08-07 19:52:00,
2013-08-07 13:11:00,56.0,52.0,30.07,NW,313,6.0,12.0,85,0.00,,,0.00,,2013-08-07 20:11:00,
2013-08-07 13:43:00,56.0,52.0,30.07,NW,322,10.0,16.0,87,0.00,,,0.00,,2013-08-07 20:43:00,
2013-08-07 13:52:00,57.0,53.0,30.07,NNW,333,9.0,17.0,87,0.00,,,0.00,,2013-08-07 20:52:00,
2013-08-07 14:01:00,57.0,53.0,30.07,NW,323,10.0,17.0,87,0.00,,,0.00,,2013-08-07 21:01:00,
2013-08-07 14:43:00,56.0,52.0,30.11,WSW,240,5.0,10.0,88,0.00,,,0.00,,2013-08-07 21:43:00,
2013-08-07 14:52:00,55.0,52.0,30.12,SSW,194,2.0,10.0,88,0.00,,,0.00,,2013-08-07 21:52:00,
2013-08-07 15:12:00,53.0,51.0,30.13,SSW,203,5.0,7.0,92,0.00,,,0.00,,2013-08-07 22:12:00,
2013-08-07 15:22:00,53.0,51.0,30.12,SW,222,2.0,8.0,93,0.00,,,0.00,,2013-08-07 22:22:00,
2013-08-07 15:32:00,53.0,51.0,30.13,SSW,210,2.0,8.0,93,0.00,,,0.00,,2013-08-07 22:32:00,
2013-08-07 15:43:00,53.0,51.0,30.13,WSW,242,0.0,7.0,93,0.00,,,0.00,,2013-08-07 22:43:00,
2013-08-07 15:52:00,54.0,52.0,30.12,SW,221,2.0,7.0,93,0.00,,,0.00,,2013-08-07 22:52:00,
2013-08-07 16:01:00,54.0,52.0,30.12,SW,221,2.0,7.0,93,0.00,,,0.00,,2013-08-07 23:01:00,
2013-08-07 16:11:00,53.0,51.0,30.12,SW,232,0.0,5.0,93,0.00,,,0.00,,2013-08-07 23:11:00,
2013-08-07 16:43:00,54.0,52.0,30.11,North,0,0.0,0.0,94,0.00,,,0.00,,2013-08-07 23:43:00,
2013-08-07 16:52:00,54.0,52.0,30.11,North,0,0.0,0.0,94,0.00,,,0.00,,2013-08-07 23:52:00,
2013-08-07 17:01:00,54.0,52.0,30.11,North,0,0.0,0.0,93,0.00,,,0.00,,2013-08-08 00:01:00,
2013-08-07 17:11:00,54.0,52.0,30.11,North,0,0.0,0.0,94,0.00,,,0.00,,2013-08-08 00:11:00,
2013-08-07 17:42:00,55.0,53.0,30.10,North,0,0.0,4.0,92,0.00,,,0.00,,2013-08-08 00:42:00,
2013-08-07 17:52:00,55.0,53.0,30.10,West,280,1.0,4.0,92,0.00,,,0.00,,2013-08-08 00:52:00,
2013-08-07 18:02:00,55.0,53.0,30.10,West,280,1.0,4.0,92,0.00,,,0.00,,2013-08-08 01:02:00,
2013-08-07 18:21:00,55.0,53.0,30.10,North,0,0.0,4.0,92,0.00,,,0.00,,2013-08-08 01:21:00,
2013-08-07 18:32:00,56.0,54.0,30.10,North,0,0.0,0.0,93,0.00,,,0.00,,2013-08-08 01:32:00,
2013-08-07 18:52:00,56.0,54.0,30.10,WNW,285,2.0,3.0,93,0.00,,,0.00,,2013-08-08 01:52:00,
2013-08-07 19:02:00,56.0,54.0,30.10,WNW,285,2.0,3.0,93,0.00,,,0.00,,2013-08-08 02:02:00,
2013-08-07 19:11:00,55.0,53.0,30.09,North,0,0.0,4.0,92,0.00,,,0.00,,2013-08-08 02:11:00,
2013-08-07 19:32:00,53.0,51.0,30.09,North,0,0.0,0.0,94,0.00,,,0.00,,2013-08-08 02:32:00,
2013-08-07 19:42:00,53.0,51.0,30.10,WSW,254,2.0,3.0,94,0.00,,,0.00,,2013-08-08 02:42:00,
2013-08-07 19:52:00,53.0,52.0,30.10,SE,138,1.0,6.0,95,0.00,,,0.00,,2013-08-08 02:52:00,
2013-08-07 20:01:00,53.0,52.0,30.10,South,184,4.0,7.0,95,0.00,,,0.00,,2013-08-08 03:01:00,
2013-08-07 20:11:00,52.0,51.0,30.10,ESE,119,0.0,7.0,96,0.00,,,0.00,,2013-08-08 03:11:00,
2013-08-07 20:21:00,52.0,51.0,30.11,WSW,243,0.0,6.0,96,0.00,,,0.00,,2013-08-08 03:21:00,
2013-08-07 20:32:00,52.0,51.0,30.11,West,270,0.0,6.0,96,0.00,,,0.00,,2013-08-08 03:32:00,
2013-08-07 20:43:00,52.0,51.0,30.10,NW,322,2.0,5.0,96,0.00,,,0.00,,2013-08-08 03:43:00,
2013-08-07 20:52:00,52.0,51.0,30.10,SSE,148,0.0,5.0,96,0.00,,,0.00,,2013-08-08 03:52:00,
2013-08-07 21:01:00,52.0,51.0,30.10,North,0,0.0,3.0,96,0.00,,,0.00,,2013-08-08 04:01:00,
2013-08-07 21:11:00,52.0,51.0,30.10,North,0,0.0,3.0,96,0.00,,,0.00,,2013-08-08 04:11:00,
2013-08-07 21:21:00,52.0,51.0,30.10,North,0,0.0,3.0,96,0.00,,,0.00,,2013-08-08 04:21:00,
2013-08-07 21:32:00,51.0,50.0,30.10,North,0,0.0,0.0,96,0.00,,,0.00,,2013-08-08 04:32:00,
2013-08-07 21:43:00,53.0,52.0,30.10,North,0,0.0,0.0,96,0.00,,,0.00,,2013-08-08 04:43:00,
2013-08-07 21:53:00,52.0,51.0,30.10,North,0,0.0,3.0,96,0.00,,,0.00,,2013-08-08 04:53:00,
2013-08-07 22:01:00,53.0,52.0,30.11,North,0,0.0,0.0,96,0.00,,,0.00,,2013-08-08 05:01:00,
2013-08-07 22:11:00,52.0,51.0,30.11,North,0,0.0,0.0,96,0.00,,,0.00,,2013-08-08 05:11:00,
2013-08-07 22:21:00,52.0,51.0,30.10,North,0,0.0,0.0,96,0.00,,,0.00,,2013-08-08 05:21:00,
2013-08-07 22:33:00,53.0,52.0,30.10,North,0,0.0,0.0,96,0.00,,,0.00,,2013-08-08 05:33:00,
2013-08-07 22:43:00,52.0,51.0,30.11,North,0,0.0,0.0,96,0.00,,,0.00,,2013-08-08 05:43:00,
2013-08-07 22:52:00,52.0,51.0,30.10,North,0,0.0,0.0,96,0.00,,,0.00,,2013-08-08 05:52:00,
2013-08-07 23:01:00,52.0,51.0,30.10,North,0,0.0,0.0,96,0.00,,,0.00,,2013-08-08 06:01:00,
2013-08-07 23:11:00,51.0,50.0,30.10,North,0,0.0,0.0,96,0.00,,,0.00,,2013-08-08 06:11:00,
2013-08-07 23:32:00,52.0,51.0,30.10,North,0,0.0,0.0,97,0.00,,,0.00,,2013-08-08 06:32:00,
2013-08-07 23:42:00,52.0,51.0,30.10,North,0,0.0,0.0,97,0.00,,,0.00,,2013-08-08 06:42:00,
2013-08-07 23:52:00,51.0,50.0,30.10,North,0,0.0,0.0,97,0.00,,,0.00,,2013-08-08 06:52:00,